| time (UTC) | temp C | wind direction | speed KPH | gust KPH | rain 1hr cm | rain 24hr cm | rain mn cm | humidity % | barometer mb |
| 20260504214528 | 23 | 252 | 14.5 | 38.6 | 0.00 | 0.00 | 0.00 | 47 | 1002.3 |
| 20260504213031 | 23 | 241 | 20.9 | 43.5 | 0.00 | 0.00 | 0.00 | 46 | 1002.3 |
| 20260504211522 | 24 | 238 | 16.1 | 29.0 | 0.00 | 0.00 | 0.00 | 48 | 1002.3 |
| 20260504210022 | 24 | 235 | 16.1 | 32.2 | 0.00 | 0.00 | 0.00 | 50 | 1002.3 |
| 20260504204533 | 23 | 247 | 19.3 | 37.0 | 0.00 | 0.00 | 0.00 | 49 | 1002.5 |
| 20260504203027 | 23 | 231 | 22.5 | 40.2 | 0.00 | 0.00 | 0.00 | 48 | 1002.6 |
| 20260504201515 | 23 | 236 | 22.5 | 35.4 | 0.00 | 0.00 | 0.00 | 49 | 1003.0 |
| 20260504200026 | 22 | 238 | 17.7 | 38.6 | 0.00 | 0.00 | 0.00 | 51 | 1003.2 |
| 20260504194526 | 22 | 273 | 12.9 | 32.2 | 0.00 | 0.00 | 0.00 | 52 | 1003.3 |
| 20260504193025 | 22 | 238 | 20.9 | 33.8 | 0.00 | 0.00 | 0.00 | 51 | 1003.3 |
| 20260504191541 | 23 | 248 | 16.1 | 29.0 | 0.00 | 0.00 | 0.00 | 51 | 1003.3 |
| 20260504190021 | 23 | 223 | 16.1 | 41.8 | 0.00 | 0.00 | 0.00 | 53 | 1003.3 |
| 20260504184538 | 22 | 237 | 17.7 | 32.2 | 0.00 | 0.00 | 0.00 | 54 | 1003.6 |
| 20260504183028 | 22 | 240 | 17.7 | 33.8 | 0.00 | 0.00 | 0.00 | 54 | 1003.9 |
| 20260504181507 | 22 | 199 | 19.3 | 30.6 | 0.00 | 0.00 | 0.00 | 55 | 1003.8 |
| 20260504180016 | 21 | 224 | 16.1 | 24.1 | 0.00 | 0.00 | 0.00 | 54 | 1004.2 |
| 20260504174518 | 21 | 229 | 17.7 | 29.0 | 0.00 | 0.00 | 0.00 | 52 | 1004.4 |
| 20260504173010 | 21 | 223 | 12.9 | 27.4 | 0.00 | 0.00 | 0.00 | 54 | 1004.7 |
| 20260504171507 | 21 | 228 | 17.7 | 29.0 | 0.00 | 0.00 | 0.00 | 50 | 1004.9 |
| 20260504081504 | 6 | 152 | 1.6 | 3.2 | 0.00 | 0.00 | 0.00 | 81 | 1007.4 |
| 20260504050020 | 7 | 153 | 3.2 | 4.8 | 0.00 | 0.00 | 0.00 | 78 | 1009.9 |
| 20260504044529 | 7 | 160 | 3.2 | 4.8 | 0.00 | 0.00 | 0.00 | 77 | 1009.9 |
| 20260504043026 | 7 | 191 | 4.8 | 9.7 | 0.00 | 0.00 | 0.00 | 77 | 1009.9 |
| 20260504041511 | 7 | 180 | 6.4 | 11.3 | 0.00 | 0.00 | 0.00 | 76 | 1010.0 |
| 20260504040018 | 7 | 173 | 6.4 | 9.7 | 0.00 | 0.00 | 0.00 | 76 | 1010.1 |
| 20260504034522 | 7 | 218 | 4.8 | 11.3 | 0.00 | 0.00 | 0.00 | 75 | 1010.2 |
| 20260504033025 | 8 | 233 | 3.2 | 9.7 | 0.00 | 0.00 | 0.00 | 75 | 1010.4 |
| 20260504031528 | 8 | 178 | 3.2 | 9.7 | 0.00 | 0.00 | 0.00 | 74 | 1010.5 |
| 20260504030014 | 8 | 174 | 4.8 | 9.7 | 0.00 | 0.00 | 0.00 | 74 | 1010.7 |
| 20260504024531 | 8 | 185 | 4.8 | 11.3 | 0.00 | 0.00 | 0.00 | 73 | 1010.9 |
| 20260504023026 | 8 | 174 | 6.4 | 16.1 | 0.00 | 0.00 | 0.00 | 73 | 1011.0 |
| 20260504021528 | 8 | 228 | 6.4 | 12.9 | 0.00 | 0.00 | 0.00 | 73 | 1011.0 |
| 20260504020029 | 8 | 184 | 6.4 | 11.3 | 0.00 | 0.00 | 0.00 | 73 | 1011.1 |
| 20260504014515 | 8 | 157 | 6.4 | 11.3 | 0.00 | 0.00 | 0.00 | 72 | 1011.2 |
| 20260504013003 | 9 | 156 | 6.4 | 14.5 | 0.00 | 0.00 | 0.00 | 71 | 1011.1 |
| 20260504011506 | 9 | 239 | 6.4 | 16.1 | 0.00 | 0.00 | 0.00 | 71 | 1011.2 |
| 20260504010007 | 9 | 219 | 8.0 | 14.5 | 0.00 | 0.00 | 0.00 | 71 | 1011.0 |
| 20260504004512 | 9 | 164 | 8.0 | 14.5 | 0.00 | 0.00 | 0.00 | 70 | 1011.1 |
| 20260504003035 | 10 | 183 | 8.0 | 16.1 | 0.00 | 0.00 | 0.00 | 69 | 1011.2 |
| 20260504001503 | 10 | 215 | 6.4 | 11.3 | 0.00 | 0.00 | 0.00 | 69 | 1011.4 |
| 20260504000005 | 10 | 184 | 6.4 | 16.1 | 0.00 | 0.00 | 0.00 | 69 | 1011.5 |
| 20260503234513 | 10 | 184 | 8.0 | 12.9 | 0.00 | 0.00 | 0.00 | 69 | 1011.7 |
| 20260503233018 | 10 | 210 | 6.4 | 11.3 | 0.00 | 0.00 | 0.00 | 70 | 1011.7 |
| 20260503231522 | 10 | 154 | 3.2 | 14.5 | 0.00 | 0.00 | 0.00 | 70 | 1011.9 |
| 20260503230026 | 10 | 167 | 4.8 | 14.5 | 0.00 | 0.00 | 0.00 | 70 | 1012.0 |
| 20260503224509 | 10 | 153 | 9.7 | 16.1 | 0.00 | 0.00 | 0.00 | 69 | 1012.1 |
| 20260503223012 | 10 | 236 | 6.4 | 16.1 | 0.00 | 0.00 | 0.00 | 68 | 1012.5 |
| 20260503221519 | 10 | 231 | 9.7 | 19.3 | 0.00 | 0.00 | 0.00 | 67 | 1012.7 |
| 20260503220024 | 10 | 222 | 11.3 | 19.3 | 0.00 | 0.00 | 0.00 | 66 | 1012.7 |